Weather in Kaly

Russia / Republic of Khakassia     53°04′36″N   91°17′16″E
temp.,
°C
wind,
m/s
gust,
m/s
humid.,
%
clouds,
%
prec.,
mm/h
press.,
hPa
HPBL,
m
11 april, sun
sun1101:00−2nnw118887 2.6 103919
04:00−3wnw118863 0.0 104018
07:00−6ssw21918 0.0 104330
10:000nnw11664 0.0 1041638
13:00+3nne21560 0.0 1040819
16:00+4ne115486 0.0 1038789
19:00+1se1181100 0.0 103820
22:00−1ssw228989 0.0 103824
12 april, mon
mon1201:00−1ssw228960 0.0 103725
04:00−3s229081 0.0 103727
07:00−2ssw228564 0.0 103640
10:00+6sw1362100 0.0 1033405
13:00+8w2450100 0.0 1031900
16:00+10sw2560100 0.0 10291070
19:00+6s3483100 0.2 102983
22:00+4s3487100 0.1 102981
13 april, tue
tue1301:00+3s448693 0.1 102761
04:00+2ssw468133 0.0 102582
07:00+3ssw3583100 0.2 1026103
10:00+4w3677100 1.2 1027813
13:00+3wnw2392100 2.4 1027502
16:00+3wsw2895100 1.7 1027741
19:00+1wnw2397100 3.4 1029240
22:00−1w3994100 2.9 1032793
14 april, wed
wed1401:00−1wsw4984100 3.6 1032487
04:00−1wsw41186100 0.2 1031968
07:00−1wsw51284100 1.1 1032969
10:00+1wsw71276100 0.6 10311411
13:00+3wsw71377100 1.2 10291595
16:00+4wsw61175100 0.7 10291484
19:00+3wsw51080100 1.1 10281001
22:00+1wsw41193100 1.7 1028789
15 april, thu
thu1501:00+1ssw3794100 5.8 1026350
04:00+2ssw41088100 0.9 1024588
07:00+2sw51187100 1.8 1023696
10:00+3sw41182100 1.2 10241156
13:00+4sw5118598 2.7 1022804
16:00+6sw498296 0.1 1021816
19:00+5ssw368890 0.2 1021228
22:00+3s339096 0.0 102253